Regional Weather Roundup
Issued by NWS State College, PA

Current Version | Previous Version | Text Only | Print | Product List | Glossary On
Versions: 1 2 3 4 5 6 7 8 9 10 11 12 13 14 15 16 17 18 19 20 21 22 23 24 25 26 27 28 29 30 31 32 33 34 35 36 37 38 39 40 41 42 43 44 45 46 47 48 49 50
000
ASUS41 KCTP 272210
RWRCTP

REGIONAL WEATHER ROUNDUP
NATIONAL WEATHER SERVICE STATE COLLEGE PA
600 PM EDT WED MAY 27 2015

Note: "fair" indicates few or no clouds below 12,000 feet with no
significant weather and/or obstructions to visibility.

* = STATION THAT DOES NOT REPORT PRECIPITATION /E.G. RAIN...SNOW...ETC/
    THUNDER OR FOG.

PAZ002>004-007>009-013>016-020>023-029>032-272300-
WESTERN PENNSYLVANIA

CITY           SKY/WX    TMP DP  RH WIND       PRES   REMARKS
ERIE           PTSUNNY   81  58  45 SW14G20   30.02R
MEADVILLE      MOSUNNY   77  58  51 SW12G20   30.07R
FRANKLIN*      MOSUNNY   77  61  57 SW13      30.10S
NEW CASTLE     FAIR      81  63  54 SW9       30.08S
BEAVER COUNTY  PTSUNNY   79  61  53 SW9G20    30.10R
BUTLER*        PTSUNNY   79  61  53 SW9G16    30.12R
PITTSBURGH INT PTSUNNY   81  59  47 SW13      30.10S
PITTSBURGH     MOSUNNY   79  55  43 SW13      30.10S
INDIANA*       MOSUNNY   79  63  57 SW12G18   30.15S
LATROBE        PTSUNNY   81  61  50 SW14G25   30.14R
WASHINGTON CO* SUNNY     79  63  57 S7G16     30.13F
$$

PAZ004>006-010>012-017>019-024>028-033>037-041-042-045-046-049>053-272300-
CENTRAL PENNSYLVANIA

CITY           SKY/WX    TMP DP  RH WIND       PRES   REMARKS
BRADFORD       PTSUNNY   76  57  51 SW10G16   30.10S
DUBOIS         MOSUNNY   80  59  48 SW12      30.11R
CLEARFIELD     MOSUNNY   79  59  50 SW10G18   30.11S
JOHNSTOWN      PTSUNNY   76  59  55 SW13      30.16R
ALTOONA        MOSUNNY   78  59  51 W9        30.13S
STATE COLLEGE  MOSUNNY   81  61  50 SW9       30.10S
WILLIAMSPORT   MOSUNNY   80  63  55 S7        30.05S
SELINSGROVE    PTSUNNY   81  64  56 SW7       30.09S
FT INDIANTOWN  CLOUDY    74  69  84 SW5       30.12R
CAPITAL CITY   PTSUNNY   77  67  71 SW7       30.11S
HARRISBURG     PTSUNNY   78  68  71 CALM      30.11R
YORK           PTSUNNY   74  67  78 CALM      30.12F
$$

PAZ038>040-043-044-047-048-054-055-060>062-067>071-272300-
EASTERN PENNSYLVANIA

CITY           SKY/WX    TMP DP  RH WIND       PRES   REMARKS
SCRANTON       CLOUDY    73  69  87 SW5       30.10S
MOUNT POCONO   LGT RAIN  66  63  90 W6        30.14S
ALLENTOWN      LGT RAIN  71  68  90 W8        30.11F
QUAKERTOWN*    CLOUDY    72  68  88 SW5       30.13F
READING        CLOUDY    74  69  85 S5        30.11S
LANCASTER      CLOUDY    74  68  81 S5        30.12S
COATESVILLE    LGT RAIN  70  70 100 CALM      30.15F
POTTSTOWN      CLOUDY    70  70 100 SW5       30.14S
BLUE BELL      CLOUDY    72  68  88 W8        30.12R
DOYLESTOWN     CLOUDY    74  67  78 SW13      30.12R
WILLOW GROVE   NOT AVBL
NORTH PHILA    CLOUDY    83  67  58 S6        30.09F
PHILADELPHIA   TSTM      77  68  73 W26G33    30.11R VSB 3/4
$$


USA.gov is the U.S. government's official web portal to all federal, state and local government web resources and services.